Flag for Germany Weather past 2 weeks in Pirmasens, Rhineland-Palatinate, Germany

Now
37 °F

Clear.


Feels Like: 34 °F
Forecast: 42 / 66 °F
Wind: 5 mph from Southeast

Location: Ramstein


UV Index: 0 (Low)

Visibility: N/A


Pressure: 29.67 "Hg

Humidity: 93%

Dew point: 36 °F

Location of PirmasensLocation

Historic Weather in Pirmasens

°F

Pirmasens temperature yesterday

Maximum temperature yesterday: 66 °F (at 4:58 PM)
Minimum temperature yesterday: 37 °F (at 6:58 AM)
Average temperature yesterday: 53 °F

Past Weeks' High & Low Weather Summary

 TemperatureHumidityPressure
High72 °F (Apr 7, 3:58 PM)100% (Apr 6, 3:04 AM)30.43 "Hg (Apr 6, 3:04 AM)
Low26 °F (Apr 16, 6:58 AM)23% (Apr 17, 6:58 PM)29.65 "Hg (Apr 20, 4:58 PM)
Average50 °F66%30.08 "Hg
* Reported Apr 6 3:04 AM — Apr 21 3:58 AM, Pirmasens, Weather by CustomWeather, © 2014

Note: Actual official high and low records may vary slightly from our data, if they occured in-between our weather recording intervals... More about our weather records

Advertising

Historic Weather Conditions — Data for Previous 24 hours

 ConditionsComfort  
Time TempWeatherWind HumidityBarometerVisibility
3:58 AM
Apr 21
39 °FClear.3 mph93%29.67 "HgN/A
2:58 AM41 °FPassing clouds.3 mph93%29.67 "HgN/A
1:58 AM45 °FPassing clouds.2 mph83%29.68 "HgN/A
12:58 AM48 °FClear.2 mph76%29.70 "HgN/A
11:58 PM
Apr 20
46 °FPassing clouds.No wind82%29.70 "HgN/A
10:58 PM51 °FPassing clouds.3 mph71%29.69 "HgN/A
9:58 PM57 °FPassing clouds.5 mph59%29.69 "HgN/A
8:58 PM55 °FOvercast.No wind67%29.67 "HgN/A
7:58 PM61 °FDrizzle. Partly sunny.2 mph52%29.66 "HgN/A
6:58 PM64 °FScattered clouds.8 mph42%29.66 "HgN/A
5:58 PM64 °FPartly sunny.8 mph45%29.66 "HgN/A
4:58 PM66 °FSunny.7 mph43%29.65 "HgN/A
3:58 PM65 °FPassing clouds.9 mph46%29.67 "HgN/A
2:58 PM65 °FPassing clouds.9 mph45%29.67 "HgN/A
1:58 PM64 °FPassing clouds.8 mph52%29.70 "HgN/A
12:58 PM63 °FPassing clouds.13 mph53%29.69 "HgN/A
11:58 AM61 °FPartly sunny.10 mph59%29.70 "HgN/A
10:58 AM60 °FPassing clouds.3 mph61%29.71 "HgN/A
9:58 AM54 °FPartly sunny.8 mph78%29.72 "HgN/A
8:58 AM48 °FFog.7 mph100%29.72 "HgN/A
7:58 AM43 °FFog.No wind100%29.73 "Hg4 mi
7:04 AM37 °FFog.2 mph100%29.72 "Hg1 mi
6:58 AM37 °FFog.2 mph100%29.73 "Hg1 mi
5:58 AM41 °FClear.No wind100%29.73 "HgN/A
Weather by CustomWeather, © 2014

See weather overview